Top 50   14 MHz   UTC   Spotter   Comment  
MJ/OK1NP   14237.0   26 Jul 01:02   N8YQX  
M0NPT/P   14070.0   26 Jul 01:02   M0NPT   psk31
E72NATO   14022.6   26 Jul 01:02   NM9C   via E72Y
K1KJC   14209.9   26 Jul 01:02   KG4KWW   na055
JY9FC   14195.0   26 Jul 01:02   KB1JDY   59 tnx
E72NATO   14022.7   26 Jul 01:01   K2QB  
A92HK   14205.0   26 Jul 01:01   AA8M  
SV9CVY   14266.0   26 Jul 01:01   K3NUI  
A92HK   14202.0   26 Jul 01:01   W8GU   Now QRT
UK8OA   14011.0   26 Jul 01:00   NK3Y  
OD5ZZ   14327.0   26 Jul 00:59   G1TDN   TRIPOLI LEBANON TNX WALID 73
JY9FC   14195.0   26 Jul 00:59   9A6AIV   tnx QSO
VU2PHD   14016.8   26 Jul 00:58   N1QY  
RN1AQ   14187.8   26 Jul 00:58   K4TR  
ZL2WL   14217.0   26 Jul 00:58   ZL2WL   calling cq dx
YT9M   14221.5   26 Jul 00:58   K3NUI  
SV9CVY   14266.0   26 Jul 00:57   N2PQJ  
KU9C/VP9   14160.0   26 Jul 00:57   PY7ZZ   cq vy weak hr ....
7Z1AO   14192.0   26 Jul 00:56   RX0AX   73!
EX2F   14005.0   26 Jul 00:55   K2QB  
UA3G   14006.0   26 Jul 00:54   K2QB  
AA1SU   14296.0   26 Jul 00:54   G1TDN   VERMONT USA TNX PAUL 73S
AA1SU   14296.0   26 Jul 00:54   AA1SU   175 POINTS VT SM
KU9C/VP9   14160.0   26 Jul 00:53   KU9C  
OD5ZZ   14327.0   26 Jul 00:53   NW5Q   Loud in Texas
7Z1AO   14192.0   26 Jul 00:50   K2MFY  
OD5ZZ   14327.0   26 Jul 00:52   N1GKX  
UK8OA   14011.0   26 Jul 00:51   K2QB  
WD1U   14072.3   26 Jul 00:50   RV3DCM   tnx BPSK31 qso WALLY
K1KJC   14210.0   26 Jul 00:51   WD8PKF   NA055
4X6TT   14273.9   26 Jul 00:51   N8JG   Big signal into Michigan from Israel
S51DX   14282.0   26 Jul 00:51   N1MIE  
ZY14AL   14017.0   26 Jul 00:50   K2QB  
CU3AC   14256.0   26 Jul 00:49   N5FG  
YL2KF   14072.1   26 Jul 00:48   WB3D   PSK31
W9IMS   14265.0   26 Jul 00:49   WY9T   Indy Brkyrd 400 SE 3rd Race
MJ/OK1NP   14237.0   26 Jul 00:48   K4TR  
OE3XMA   14243.5   26 Jul 00:47   VE3VEE   59+25 in VE3
A92HK   14202.0   26 Jul 00:47   XE1SEK   59,in Puebla,Mexico
HI8MU   14071.0   26 Jul 00:47   EA1IPH  
UN6GDX   14264.0   26 Jul 00:46   UN7QE   CQ DX!
R1CC   14228.0   26 Jul 00:46   KP4LE   ths
4X6TT   14274.0   26 Jul 00:44   W1EBM   Amir
KI3F   14072.4   26 Jul 00:44   RV3DCM   BPSK31
CU3AC   14256.0   26 Jul 00:44   CU3DI  
A92HK   14202.0   26 Jul 00:44   K4TR  
KU9C/VP9   14160.0   26 Jul 00:43   RO9O   CQn
7Z1AO   14192.0   26 Jul 00:42   NU1O   Abdullah 100 Watts es Diole 59 Ma
A92HK   14202.0   26 Jul 00:42   VE3HBZ   73 Fabien 3 UP
GJ0BKU/P   14250.0   26 Jul 00:42   N5HC   59